CAPE
0 0 0 0 0 0 0 0 0 0 0 0 0 0 0 0 0 0 0 0 0 0
0 0 0 0 0 0 0 0 0 0 0 0 0 0 0 0 0 0 0 0 0 0
0 0 0 0 0 0 0 0 0 0 0 0 0 0 0 0 0 0 0 0 0 0
0 0 0 0 0 0 0 0 0 0 0 0 0 0 0 0 0 0 0 0 0 0
0 0 0 0 0 0 0 0 0 0 0 0 0 0 0 0 0 0 0 0 0 0
0 0 0 0 0 0 0 0 0 0 0 0 0 0 0 0 0 0 0 0 0 0
0 0 0 0 0 0 0 0 0 0 0 0 0 0 0 0 0 0 0 0 0 0
0 0 0 0 0 0 0 0 0 0 0 0 0 0 0 0 0 0 0 0 0 0
0 0 0 0 0 0 0 0 0 0 0 0 0 0 0 0 0 0 0 0 0 0
0 0 0 0 0 0 0 0 0 0 0 0 0 0 0 0 0 0 0 0 0 0
0 0 0 0 0 0 0 0 0 0 0 0 0 0 0 0 0 0 0 0 0 0
0 0 0 0 0 0 0 0 0 0 0 0 0 0 0 0 0 0 0 0 0 0
0 0 0 0 0 0 0 0 0 0 0 0 0 0 0 2 5 3 1 0 0 0
1 2 3 5 3 5 3 4 4 1 1 1 1 5 14 15 19 21 22 14 6 0
CIN
-0 -0 -0 -0 -0 -0 -0 -0 -0 -0 -0 -0 -0 -0 -0 -0 -0 -0 -0 -0 -0 -0
-0 -0 -0 -0 -0 -0 -0 -0 -0 -0 -0 -0 -0 -0 -0 -0 -0 -0 -0 -0 -0 -0
-0 -0 -0 -0 -0 -0 -0 -0 -0 -0 -0 -0 -0 -0 -0 -0 -0 -0 -0 -0 -0 -0
-0 -0 -0 -0 -0 -0 -0 -0 -0 -0 -0 -0 -0 -0 -0 -0 -0 -0 -0 -0 -0 -0
-0 -0 -0 -0 -0 -0 -0 -0 -0 -0 -0 -0 -0 -0 -0 -0 -0 -0 -0 -0 -0 -0
-0 -0 -0 -0 -0 -0 -0 -0 -0 -0 -0 -0 -0 -0 -0 -0 -0 -0 -0 -0 -0 -0
-0 -0 -0 -0 -0 -0 -0 -0 -0 -0 -0 -0 -0 -0 -0 -0 -0 -0 -0 -0 -0 -0
-0 -0 -0 -0 -0 -0 -0 -0 -0 -0 -0 -0 -0 -0 -0 -0 -0 -0 -0 -0 -0 -0
-0 -0 -0 -0 -0 -0 -0 -0 -0 -0 -0 -0 -0 -0 -0 -0 -0 -0 -0 -0 -0 -0
-0 -0 -0 -0 -0 -0 -0 -0 -0 -0 -0 -0 -0 -0 -0 -0 -0 -0 -0 -0 -0 -0
-0 -0 -0 -0 -0 -0 -0 -0 -0 -0 -0 -0 -0 -0 -0 -0 -0 -0 -0 -0 -0 -0
-0 -0 -0 -0 -0 -0 -0 -0 -0 -0 -0 -0 -0 -0 -0 -0 -0 -0 -0 -0 -0 -0
-0 -0 -0 -0 -0 -0 -0 -0 -0 -0 -0 -0 -0 -0 -0 -1 -0 -0 -0 -0 -0 -0
-0 -0 -0 -0 -0 -0 -0 -0 -0 -0 -0 -0 -1 -1 -0 -0 -0 -0 -0 -0 -0 -0
Wind_Speed
10 4 4 5 6 6 6 7 7 7 8 10 10 10 9 8 9 9 10 13 11 8
11 11 9 9 6 5 6 6 8 7 8 9 9 9 9 8 10 10 10 11 11 10
11 11 10 9 10 10 8 7 6 6 7 8 8 9 9 8 9 10 9 8 11 11
10 10 10 10 10 10 9 10 9 7 6 6 7 7 7 10 10 11 10 10 12 13
10 10 11 11 11 10 10 10 10 9 8 7 7 6 7 9 8 10 11 12 12 13
10 10 11 10 10 10 10 10 10 10 10 9 9 8 6 8 8 9 11 11 11 13
11 11 10 10 10 10 10 10 11 10 9 9 9 8 8 8 8 9 10 11 12 13
11 11 11 12 11 11 10 10 10 10 11 10 9 8 11 10 9 8 10 10 11 13
11 12 12 12 13 12 12 11 11 11 11 11 8 15 14 12 10 10 9 10 10 11
12 12 12 12 12 12 12 12 13 12 12 12 12 16 18 16 10 9 9 10 10 10
13 14 14 13 13 13 12 13 13 13 12 12 10 18 18 17 10 9 10 10 11 11
15 15 14 13 13 13 12 12 12 12 13 13 13 19 19 16 11 10 11 10 11 11
13 14 15 13 12 12 12 12 10 12 13 15 14 18 20 17 10 11 10 11 11 11
14 14 13 13 12 11 12 12 12 12 11 11 12 13 18 20 12 10 11 11 10 10
Wind_Direction
36 9 330 312 298 288 281 279 275 251 241 241 239 240 235 233 235 229 228 230 224 230
35 39 38 34 19 339 310 294 283 267 257 254 246 238 229 231 235 230 233 237 235 232
27 27 25 28 26 18 12 355 320 298 277 268 260 249 232 235 238 231 232 231 233 235
19 18 22 22 17 12 10 11 11 354 322 294 280 269 251 243 242 236 243 236 232 238
13 12 15 14 9 8 7 6 7 6 5 353 324 292 265 266 259 249 249 246 240 244
6 7 6 2 1 2 2 1 2 4 4 360 352 340 310 281 274 260 258 256 249 249
359 354 354 353 354 355 353 357 357 357 353 355 347 351 351 333 306 284 271 264 254 252
352 351 350 352 349 347 350 349 348 349 352 350 349 349 344 339 327 310 293 276 264 255
350 348 345 344 345 344 345 347 343 345 343 342 342 331 328 333 330 324 312 302 291 273
342 341 340 336 336 339 338 337 338 335 335 333 331 329 331 329 326 324 321 316 312 303
340 338 332 332 334 329 329 327 323 318 317 316 316 320 324 325 318 317 320 319 317 313
333 329 330 330 326 327 325 324 322 317 316 315 314 313 317 320 319 311 315 315 314 314
327 327 326 321 323 322 317 319 321 320 321 314 314 314 316 321 317 309 315 314 312 305
324 324 322 331 327 328 324 323 323 322 319 316 309 318 328 333 329 326 319 313 313 314